Volver al catálogo

THORAD DELTA 1 DEB

ActivoLEO
NORAD 8439·DEBRIS·🇺🇸 United States

Lanzado Nov 15, 1974 desde Vandenberg Space Force Base

Loading…

Próximos Pases (próximas 24 horas)

TLE

ActualizadoSource: Space-Track

Época: Sep 14, 2026, 10:18 UTC

1 08439U 74089CQ  26257.42967449  .00000924  00000-0  31763-2 0  9996
2 08439 102.3226  72.4350 0074321 170.7573 189.4910 13.00712415428268

Sigue THORAD DELTA 1 DEB en tiempo real con AllMySat

Download on the App Store